TimeSAST,TemperatureF,Dew PointF,Humidity,Sea Level PressureIn,VisibilityMPH,Wind Direction,Wind SpeedMPH,Gust SpeedMPH,PrecipitationIn,Events,Conditions,WindDirDegrees,DateUTC
12:00 AM,69.8,66.2,88,29.98,6.2,NNE,4.6,-,N/A,,Overcast,30,2013-12-09 22:00:00
1:00 AM,69.8,66.2,88,29.95,6.2,NNE,4.6,-,N/A,,Overcast,30,2013-12-09 23:00:00
2:00 AM,69,65,84,29.95,,NNE,3.5,,,,,30,2013-12-10 00:00:00
2:00 AM,69.8,66.2,88,29.95,6.2,Variable,2.3,-,N/A,,Overcast,0,2013-12-10 00:00:00
3:00 AM,69.8,66.2,88,29.92,6.2,Variable,2.3,-,N/A,,Overcast,0,2013-12-10 01:00:00
4:00 AM,69.8,66.2,88,29.92,6.2,NE,3.5,-,N/A,,Overcast,40,2013-12-10 02:00:00
5:00 AM,68,65,88,29.94,12,NNE,3.5,,,,Overcast,30,2013-12-10 03:00:00
5:00 AM,68.0,66.2,94,29.92,6.2,Variable,1.2,-,N/A,,Overcast,0,2013-12-10 03:00:00
6:00 AM,69.8,66.2,88,29.92,6.2,North,3.5,-,N/A,,Overcast,360,2013-12-10 04:00:00
7:00 AM,69.8,66.2,88,29.95,6.2,NNE,4.6,-,N/A,,Overcast,20,2013-12-10 05:00:00
8:00 AM,70,66,83,29.94,6,NNE,5.8,,,Rain,Light Rain,20,2013-12-10 06:00:00
8:00 AM,69.8,66.2,88,29.95,6.2,NNE,5.8,-,N/A,Rain,Light Rain,20,2013-12-10 06:00:00
9:00 AM,71.6,66.2,83,29.92,6.2,NE,3.5,-,N/A,,Overcast,50,2013-12-10 07:00:00
10:00 AM,71.6,66.2,83,29.92,6.2,ENE,5.8,-,N/A,Rain,Light Rain,60,2013-12-10 08:00:00
11:00 AM,72,67,79,29.91,12,ENE,8.1,,,Rain,Light Rain,70,2013-12-10 09:00:00
11:00 AM,71.6,68.0,88,29.89,6.2,ENE,9.2,-,N/A,,Mostly Cloudy,60,2013-12-10 09:00:00
12:00 PM,73.4,68.0,83,29.89,6.2,ENE,9.2,-,N/A,,Mostly Cloudy,60,2013-12-10 10:00:00
1:00 PM,73.4,68.0,83,29.86,6.2,ENE,10.4,-,N/A,Rain,Light Rain,60,2013-12-10 11:00:00
2:00 PM,73,67,76,29.87,2,ENE,12.7,,,Rain,Heavy Rain,60,2013-12-10 12:00:00
2:00 PM,73.4,68.0,83,29.86,1.6,ENE,13.8,-,N/A,Rain,Rain,60,2013-12-10 12:00:00
3:00 PM,71.6,68.0,88,29.83,6.2,ENE,13.8,-,N/A,,Overcast,60,2013-12-10 13:00:00
4:00 PM,71.6,68.0,88,29.83,5.6,ENE,18.4,-,N/A,Rain,Light Rain,60,2013-12-10 14:00:00
5:00 PM,71,67,84,29.82,5,ENE,15.0,,,Rain,Light Rain,60,2013-12-10 15:00:00
5:00 PM,71.6,68.0,88,29.83,5.0,ENE,16.1,-,N/A,Rain,Light Rain,60,2013-12-10 15:00:00
6:00 PM,71.6,68.0,88,29.83,5.6,NE,12.7,-,N/A,Rain,Light Rain,50,2013-12-10 16:00:00
7:00 PM,71.6,66.2,83,29.83,6.2,NE,9.2,-,N/A,,Overcast,40,2013-12-10 17:00:00
8:00 PM,70,67,85,29.85,4,NE,9.2,,,Rain,Light Rain,40,2013-12-10 18:00:00
8:00 PM,69.8,66.2,88,29.83,5.0,NE,10.4,-,N/A,Rain,Light Rain,50,2013-12-10 18:00:00
9:00 PM,69.8,66.2,88,29.86,5.6,NE,12.7,-,N/A,Rain,Light Rain,50,2013-12-10 19:00:00
10:00 PM,69.8,66.2,88,29.83,6.2,NE,17.3,-,N/A,Rain,Light Rain,50,2013-12-10 20:00:00
11:00 PM,69,66,87,29.86,,NNE,10.4,,,,,30,2013-12-10 21:00:00
11:00 PM,69.8,66.2,88,29.86,6.2,NNE,11.5,-,N/A,Rain,Light Rain,20,2013-12-10 21:00:00